Time,TemperatureF,DewpointF,PressureIn,WindDirection,WindDirectionDegrees,WindSpeedMPH,WindSpeedGustMPH,Humidity,HourlyPrecipIn,Conditions,Clouds,dailyrainin,SoftwareType,DateUTC
2013-03-21 00:03:00,37.0,30.0,29.97,NNW,333,1.0,-999.0,76,-99.99,,,-99.99,,2013-03-21 04:03:00,
2013-03-21 00:13:00,37.0,30.0,29.97,NNW,333,1.0,-999.0,76,-99.99,,,-99.99,,2013-03-21 04:13:00,
2013-03-21 00:23:00,36.0,29.0,29.97,West,277,0.0,-999.0,75,-99.99,,,-99.99,,2013-03-21 04:23:00,
2013-03-21 00:33:00,36.0,29.0,29.97,West,277,0.0,-999.0,75,-99.99,,,-99.99,,2013-03-21 04:33:00,
2013-03-21 00:43:00,36.0,29.0,29.97,West,277,0.0,-999.0,75,-99.99,,,-99.99,,2013-03-21 04:43:00,
2013-03-21 00:53:00,36.0,28.0,29.96,WNW,286,0.0,-999.0,73,-99.99,,,-99.99,,2013-03-21 04:53:00,
2013-03-21 01:03:00,36.0,27.0,29.95,SSW,193,2.0,-999.0,70,-99.99,,,-99.99,,2013-03-21 05:03:00,
2013-03-21 01:13:00,36.0,27.0,29.95,SSW,193,2.0,-999.0,70,-99.99,,,-99.99,,2013-03-21 05:13:00,
2013-03-21 01:22:00,36.0,26.0,29.95,West,270,1.0,-999.0,66,-99.99,,,-99.99,,2013-03-21 05:22:00,
2013-03-21 01:33:00,36.0,26.0,29.95,West,270,1.0,-999.0,66,-99.99,,,-99.99,,2013-03-21 05:33:00,
2013-03-21 01:44:00,35.0,25.0,29.95,NNW,340,0.0,-999.0,67,-99.99,,,-99.99,,2013-03-21 05:44:00,
2013-03-21 01:52:00,35.0,25.0,29.95,NNW,340,0.0,-999.0,67,-99.99,,,-99.99,,2013-03-21 05:52:00,
2013-03-21 02:03:00,34.0,25.0,29.96,NNW,330,0.0,-999.0,68,-99.99,,,-99.99,,2013-03-21 06:03:00,
2013-03-21 02:12:00,34.0,25.0,29.96,NNW,330,0.0,-999.0,68,-99.99,,,-99.99,,2013-03-21 06:12:00,
2013-03-21 02:22:00,34.0,25.0,29.96,NNW,330,0.0,-999.0,68,-99.99,,,-99.99,,2013-03-21 06:22:00,
2013-03-21 02:32:00,34.0,25.0,29.96,NNW,330,0.0,-999.0,68,-99.99,,,-99.99,,2013-03-21 06:32:00,
2013-03-21 02:52:00,34.0,25.0,29.93,West,267,2.0,-999.0,68,-99.99,,,-99.99,,2013-03-21 06:52:00,
2013-03-21 03:02:00,34.0,25.0,29.93,West,281,1.0,-999.0,68,-99.99,,,-99.99,,2013-03-21 07:02:00,
2013-03-21 03:13:00,34.0,25.0,29.93,West,281,1.0,-999.0,68,-99.99,,,-99.99,,2013-03-21 07:13:00,
2013-03-21 03:22:00,33.0,24.0,29.93,West,269,0.0,-999.0,69,-99.99,,,-99.99,,2013-03-21 07:22:00,
2013-03-21 03:32:00,33.0,24.0,29.93,West,281,1.0,-999.0,69,-99.99,,,-99.99,,2013-03-21 07:32:00,
2013-03-21 03:42:00,33.0,24.0,29.93,West,281,1.0,-999.0,69,-99.99,,,-99.99,,2013-03-21 07:42:00,
2013-03-21 03:52:00,32.0,23.0,29.92,WNW,284,1.0,-999.0,69,-99.99,,,-99.99,,2013-03-21 07:52:00,
2013-03-21 04:02:00,32.0,23.0,29.92,WNW,284,1.0,-999.0,69,-99.99,,,-99.99,,2013-03-21 08:02:00,
2013-03-21 04:13:00,32.0,22.0,29.91,West,264,1.0,-999.0,65,-99.99,,,-99.99,,2013-03-21 08:13:00,
2013-03-21 04:23:00,32.0,22.0,29.91,West,264,1.0,-999.0,65,-99.99,,,-99.99,,2013-03-21 08:23:00,
2013-03-21 04:33:00,31.0,21.0,29.91,WNW,290,1.0,-999.0,65,-99.99,,,-99.99,,2013-03-21 08:33:00,
2013-03-21 04:42:00,31.0,21.0,29.91,WNW,290,1.0,-999.0,65,-99.99,,,-99.99,,2013-03-21 08:42:00,
2013-03-21 04:52:00,31.0,21.0,29.91,WSW,257,1.0,-999.0,65,-99.99,,,-99.99,,2013-03-21 08:52:00,
2013-03-21 05:02:00,30.0,19.0,29.91,West,271,2.0,-999.0,63,-99.99,,,-99.99,,2013-03-21 09:02:00,
2013-03-21 05:11:00,30.0,19.0,29.91,West,271,2.0,-999.0,63,-99.99,,,-99.99,,2013-03-21 09:11:00,
2013-03-21 05:22:00,30.0,19.0,29.90,West,269,2.0,-999.0,64,-99.99,,,-99.99,,2013-03-21 09:22:00,
2013-03-21 05:33:00,29.0,18.0,29.90,West,281,1.0,-999.0,64,-99.99,,,-99.99,,2013-03-21 09:33:00,
2013-03-21 05:43:00,29.0,18.0,29.90,West,281,1.0,-999.0,64,-99.99,,,-99.99,,2013-03-21 09:43:00,
2013-03-21 05:53:00,29.0,19.0,29.90,WNW,287,0.0,-999.0,65,-99.99,,,-99.99,,2013-03-21 09:53:00,
2013-03-21 06:03:00,28.0,17.0,29.90,WNW,287,0.0,-999.0,64,-99.99,,,-99.99,,2013-03-21 10:03:00,
2013-03-21 06:12:00,28.0,17.0,29.90,WNW,287,0.0,-999.0,64,-99.99,,,-99.99,,2013-03-21 10:12:00,
2013-03-21 06:23:00,28.0,17.0,29.91,WNW,288,0.0,-999.0,63,-99.99,,,-99.99,,2013-03-21 10:23:00,
2013-03-21 06:34:00,27.0,16.0,29.91,West,281,0.0,-999.0,62,-99.99,,,-99.99,,2013-03-21 10:34:00,
2013-03-21 06:42:00,27.0,16.0,29.91,West,281,0.0,-999.0,62,-99.99,,,-99.99,,2013-03-21 10:42:00,
2013-03-21 06:53:00,27.0,15.0,29.91,West,281,0.0,-999.0,60,-99.99,,,-99.99,,2013-03-21 10:53:00,
2013-03-21 07:03:00,27.0,14.0,29.91,WNW,284,2.0,-999.0,57,-99.99,,,-99.99,,2013-03-21 11:03:00,
2013-03-21 07:13:00,27.0,14.0,29.91,WNW,284,2.0,-999.0,57,-99.99,,,-99.99,,2013-03-21 11:13:00,
2013-03-21 07:22:00,26.0,13.0,29.91,West,271,1.0,-999.0,57,-99.99,,,-99.99,,2013-03-21 11:22:00,
2013-03-21 07:33:00,26.0,12.0,29.91,West,280,1.0,-999.0,56,-99.99,,,-99.99,,2013-03-21 11:33:00,
2013-03-21 07:43:00,26.0,12.0,29.91,West,280,1.0,-999.0,56,-99.99,,,-99.99,,2013-03-21 11:43:00,
2013-03-21 07:52:00,26.0,13.0,29.91,West,280,0.0,-999.0,57,-99.99,,,-99.99,,2013-03-21 11:52:00,
2013-03-21 08:03:00,25.0,12.0,29.92,West,280,0.0,-999.0,57,-99.99,,,-99.99,,2013-03-21 12:03:00,
2013-03-21 08:12:00,25.0,12.0,29.92,West,280,0.0,-999.0,57,-99.99,,,-99.99,,2013-03-21 12:12:00,
2013-03-21 08:22:00,25.0,12.0,29.92,West,280,0.0,-999.0,56,-99.99,,,-99.99,,2013-03-21 12:22:00,
2013-03-21 08:33:00,25.0,11.0,29.92,West,280,0.0,-999.0,54,-99.99,,,-99.99,,2013-03-21 12:33:00,
2013-03-21 08:43:00,25.0,11.0,29.92,West,280,0.0,-999.0,54,-99.99,,,-99.99,,2013-03-21 12:43:00,
2013-03-21 08:52:00,26.0,11.0,29.92,WNW,287,0.0,-999.0,52,-99.99,,,-99.99,,2013-03-21 12:52:00,
2013-03-21 09:03:00,26.0,9.0,29.93,SW,227,0.0,-999.0,48,-99.99,,,-99.99,,2013-03-21 13:03:00,
2013-03-21 09:12:00,26.0,9.0,29.93,SW,227,0.0,-999.0,48,-99.99,,,-99.99,,2013-03-21 13:12:00,
2013-03-21 09:22:00,26.0,9.0,29.93,SW,227,0.0,-999.0,48,-99.99,,,-99.99,,2013-03-21 13:22:00,
2013-03-21 09:32:00,28.0,7.0,29.94,West,269,1.0,-999.0,40,-99.99,,,-99.99,,2013-03-21 13:32:00,
2013-03-21 09:43:00,28.0,7.0,29.94,West,269,1.0,-999.0,40,-99.99,,,-99.99,,2013-03-21 13:43:00,
2013-03-21 09:53:00,29.0,8.0,29.94,ENE,64,0.0,-999.0,40,-99.99,,,-99.99,,2013-03-21 13:53:00,
2013-03-21 10:02:00,30.0,8.0,29.95,WNW,298,1.0,-999.0,39,-99.99,,,-99.99,,2013-03-21 14:02:00,
2013-03-21 10:12:00,31.0,10.0,29.95,WSW,258,1.0,-999.0,40,-99.99,,,-99.99,,2013-03-21 14:12:00,
2013-03-21 10:22:00,31.0,10.0,29.95,WSW,258,1.0,-999.0,40,-99.99,,,-99.99,,2013-03-21 14:22:00,
2013-03-21 10:32:00,32.0,9.0,29.96,West,263,2.0,-999.0,38,-99.99,,,-99.99,,2013-03-21 14:32:00,
2013-03-21 10:42:00,32.0,9.0,29.96,West,263,2.0,-999.0,38,-99.99,,,-99.99,,2013-03-21 14:42:00,
2013-03-21 10:52:00,34.0,9.0,29.96,WSW,249,1.0,-999.0,35,-99.99,,,-99.99,,2013-03-21 14:52:00,
2013-03-21 11:04:00,34.0,9.0,29.96,WSW,252,1.0,-999.0,34,-99.99,,,-99.99,,2013-03-21 15:04:00,
2013-03-21 11:12:00,35.0,9.0,29.96,West,276,1.0,-999.0,34,-99.99,,,-99.99,,2013-03-21 15:12:00,
2013-03-21 11:22:00,35.0,9.0,29.96,West,276,1.0,-999.0,34,-99.99,,,-99.99,,2013-03-21 15:22:00,
2013-03-21 11:33:00,38.0,11.0,29.96,WSW,250,1.0,-999.0,33,-99.99,,,-99.99,,2013-03-21 15:33:00,
2013-03-21 11:42:00,38.0,11.0,29.96,WSW,250,1.0,-999.0,33,-99.99,,,-99.99,,2013-03-21 15:42:00,
2013-03-21 11:53:00,38.0,11.0,29.96,WSW,250,1.0,-999.0,33,-99.99,,,-99.99,,2013-03-21 15:53:00,
2013-03-21 12:03:00,39.0,9.0,29.96,West,272,2.0,-999.0,29,-99.99,,,-99.99,,2013-03-21 16:03:00,
2013-03-21 12:13:00,39.0,9.0,29.96,West,272,2.0,-999.0,29,-99.99,,,-99.99,,2013-03-21 16:13:00,
2013-03-21 12:23:00,40.0,12.0,29.96,WNW,288,1.0,-999.0,31,-99.99,,,-99.99,,2013-03-21 16:23:00,
2013-03-21 12:33:00,40.0,10.0,29.96,WSW,237,2.0,-999.0,29,-99.99,,,-99.99,,2013-03-21 16:33:00,
2013-03-21 12:42:00,40.0,10.0,29.96,WSW,237,2.0,-999.0,29,-99.99,,,-99.99,,2013-03-21 16:42:00,
2013-03-21 12:52:00,41.0,11.0,29.95,West,262,2.0,-999.0,29,-99.99,,,-99.99,,2013-03-21 16:52:00,
2013-03-21 13:03:00,41.0,10.0,29.96,West,267,2.0,-999.0,27,-99.99,,,-99.99,,2013-03-21 17:03:00,
2013-03-21 13:12:00,41.0,10.0,29.96,West,267,2.0,-999.0,27,-99.99,,,-99.99,,2013-03-21 17:12:00,
2013-03-21 13:23:00,42.0,10.0,29.96,WSW,258,2.0,-999.0,26,-99.99,,,-99.99,,2013-03-21 17:23:00,
2013-03-21 13:33:00,41.0,10.0,29.96,West,260,3.0,-999.0,28,-99.99,,,-99.99,,2013-03-21 17:33:00,
2013-03-21 13:43:00,41.0,10.0,29.96,West,260,3.0,-999.0,28,-99.99,,,-99.99,,2013-03-21 17:43:00,
2013-03-21 13:52:00,44.0,12.0,29.95,WSW,257,2.0,-999.0,27,-99.99,,,-99.99,,2013-03-21 17:52:00,
2013-03-21 14:02:00,43.0,10.0,29.95,West,269,1.0,-999.0,26,-99.99,,,-99.99,,2013-03-21 18:02:00,
2013-03-21 14:12:00,43.0,10.0,29.95,West,269,1.0,-999.0,26,-99.99,,,-99.99,,2013-03-21 18:12:00,
2013-03-21 14:23:00,44.0,13.0,29.94,West,271,2.0,-999.0,28,-99.99,,,-99.99,,2013-03-21 18:23:00,
2013-03-21 14:32:00,42.0,10.0,29.94,WSW,248,4.0,-999.0,27,-99.99,,,-99.99,,2013-03-21 18:32:00,
2013-03-21 14:42:00,42.0,10.0,29.94,WSW,248,4.0,-999.0,27,-99.99,,,-99.99,,2013-03-21 18:42:00,
2013-03-21 14:52:00,42.0,10.0,29.94,WSW,248,4.0,-999.0,27,-99.99,,,-99.99,,2013-03-21 18:52:00,
2013-03-21 15:02:00,44.0,12.0,29.93,WNW,286,2.0,-999.0,27,-99.99,,,-99.99,,2013-03-21 19:02:00,
2013-03-21 15:12:00,44.0,12.0,29.93,WNW,286,2.0,-999.0,27,-99.99,,,-99.99,,2013-03-21 19:12:00,
2013-03-21 15:23:00,44.0,14.0,29.93,NW,323,2.0,-999.0,29,-99.99,,,-99.99,,2013-03-21 19:23:00,
2013-03-21 15:32:00,44.0,15.0,29.93,West,263,2.0,-999.0,30,-99.99,,,-99.99,,2013-03-21 19:32:00,
2013-03-21 15:43:00,44.0,15.0,29.93,West,263,2.0,-999.0,30,-99.99,,,-99.99,,2013-03-21 19:43:00,
2013-03-21 15:52:00,45.0,14.0,29.93,West,260,1.0,-999.0,28,-99.99,,,-99.99,,2013-03-21 19:52:00,
2013-03-21 16:02:00,44.0,14.0,29.93,WNW,291,3.0,-999.0,29,-99.99,,,-99.99,,2013-03-21 20:02:00,
2013-03-21 16:13:00,44.0,14.0,29.93,WNW,291,3.0,-999.0,29,-99.99,,,-99.99,,2013-03-21 20:13:00,
2013-03-21 16:22:00,44.0,14.0,29.93,West,268,3.0,-999.0,29,-99.99,,,-99.99,,2013-03-21 20:22:00,
2013-03-21 16:33:00,44.0,14.0,29.93,WSW,241,2.0,-999.0,29,-99.99,,,-99.99,,2013-03-21 20:33:00,
2013-03-21 16:42:00,44.0,14.0,29.93,WSW,241,2.0,-999.0,29,-99.99,,,-99.99,,2013-03-21 20:42:00,
2013-03-21 16:53:00,43.0,12.0,29.93,NW,313,1.0,-999.0,28,-99.99,,,-99.99,,2013-03-21 20:53:00,
2013-03-21 17:03:00,44.0,13.0,29.93,SW,229,1.0,-999.0,28,-99.99,,,-99.99,,2013-03-21 21:03:00,
2013-03-21 17:12:00,44.0,13.0,29.93,SW,229,1.0,-999.0,28,-99.99,,,-99.99,,2013-03-21 21:12:00,
2013-03-21 17:22:00,43.0,13.0,29.94,WSW,257,1.0,-999.0,29,-99.99,,,-99.99,,2013-03-21 21:22:00,
2013-03-21 17:33:00,43.0,14.0,29.94,NNW,343,1.0,-999.0,30,-99.99,,,-99.99,,2013-03-21 21:33:00,
2013-03-21 17:43:00,43.0,14.0,29.94,NNW,343,1.0,-999.0,30,-99.99,,,-99.99,,2013-03-21 21:43:00,
2013-03-21 17:53:00,42.0,13.0,29.94,West,273,1.0,-999.0,30,-99.99,,,-99.99,,2013-03-21 21:53:00,
2013-03-21 18:03:00,42.0,13.0,29.94,West,273,1.0,-999.0,30,-99.99,,,-99.99,,2013-03-21 22:03:00,
2013-03-21 18:13:00,42.0,13.0,29.94,West,273,1.0,-999.0,30,-99.99,,,-99.99,,2013-03-21 22:13:00,
2013-03-21 18:23:00,42.0,13.0,29.94,WSW,248,1.0,-999.0,30,-99.99,,,-99.99,,2013-03-21 22:23:00,
2013-03-21 18:33:00,41.0,13.0,29.94,WSW,240,1.0,-999.0,31,-99.99,,,-99.99,,2013-03-21 22:33:00,
2013-03-21 18:42:00,41.0,13.0,29.94,WSW,240,1.0,-999.0,31,-99.99,,,-99.99,,2013-03-21 22:42:00,
2013-03-21 18:52:00,41.0,13.0,29.94,West,277,1.0,-999.0,32,-99.99,,,-99.99,,2013-03-21 22:52:00,
2013-03-21 19:02:00,40.0,13.0,29.94,West,273,1.0,-999.0,32,-99.99,,,-99.99,,2013-03-21 23:02:00,
2013-03-21 19:12:00,40.0,13.0,29.94,West,273,1.0,-999.0,32,-99.99,,,-99.99,,2013-03-21 23:12:00,
2013-03-21 19:22:00,40.0,13.0,29.95,West,263,1.0,-999.0,33,-99.99,,,-99.99,,2013-03-21 23:22:00,
2013-03-21 19:33:00,39.0,13.0,29.94,West,275,1.0,-999.0,34,-99.99,,,-99.99,,2013-03-21 23:33:00,
2013-03-21 19:43:00,39.0,13.0,29.94,West,275,1.0,-999.0,34,-99.99,,,-99.99,,2013-03-21 23:43:00,
2013-03-21 19:52:00,38.0,12.0,29.95,West,268,0.0,-999.0,34,-99.99,,,-99.99,,2013-03-21 23:52:00,
2013-03-21 20:03:00,37.0,13.0,29.96,West,275,0.0,-999.0,37,-99.99,,,-99.99,,2013-03-22 00:03:00,
2013-03-21 20:13:00,37.0,13.0,29.96,West,275,0.0,-999.0,37,-99.99,,,-99.99,,2013-03-22 00:13:00,
2013-03-21 20:22:00,37.0,13.0,29.96,West,276,0.0,-999.0,37,-99.99,,,-99.99,,2013-03-22 00:22:00,
2013-03-21 20:32:00,35.0,13.0,29.96,West,276,0.0,-999.0,39,-99.99,,,-99.99,,2013-03-22 00:32:00,
2013-03-21 20:42:00,35.0,13.0,29.96,West,276,0.0,-999.0,39,-99.99,,,-99.99,,2013-03-22 00:42:00,
2013-03-21 20:52:00,34.0,13.0,29.97,West,276,0.0,-999.0,42,-99.99,,,-99.99,,2013-03-22 00:52:00,
2013-03-21 21:03:00,34.0,12.0,29.98,West,276,0.0,-999.0,40,-99.99,,,-99.99,,2013-03-22 01:03:00,
2013-03-21 21:12:00,34.0,12.0,29.98,West,276,0.0,-999.0,40,-99.99,,,-99.99,,2013-03-22 01:12:00,
2013-03-21 21:22:00,34.0,12.0,29.98,West,276,0.0,-999.0,40,-99.99,,,-99.99,,2013-03-22 01:22:00,
2013-03-21 21:32:00,33.0,12.0,29.98,West,276,0.0,-999.0,42,-99.99,,,-99.99,,2013-03-22 01:32:00,
2013-03-21 21:43:00,33.0,12.0,29.98,West,276,0.0,-999.0,42,-99.99,,,-99.99,,2013-03-22 01:43:00,
2013-03-21 21:53:00,32.0,13.0,29.99,West,276,0.0,-999.0,44,-99.99,,,-99.99,,2013-03-22 01:53:00,
2013-03-21 22:03:00,32.0,15.0,29.99,West,276,0.0,-999.0,48,-99.99,,,-99.99,,2013-03-22 02:03:00,
2013-03-21 22:12:00,32.0,15.0,29.99,West,276,0.0,-999.0,48,-99.99,,,-99.99,,2013-03-22 02:12:00,
2013-03-21 22:22:00,31.0,13.0,29.99,West,276,0.0,-999.0,47,-99.99,,,-99.99,,2013-03-22 02:22:00,
2013-03-21 22:32:00,31.0,14.0,29.99,West,276,0.0,-999.0,49,-99.99,,,-99.99,,2013-03-22 02:32:00,
2013-03-21 22:43:00,31.0,14.0,29.99,West,276,0.0,-999.0,49,-99.99,,,-99.99,,2013-03-22 02:43:00,
2013-03-21 22:52:00,30.0,16.0,30.00,West,276,0.0,-999.0,56,-99.99,,,-99.99,,2013-03-22 02:52:00,
2013-03-21 23:02:00,29.0,16.0,30.01,West,276,0.0,-999.0,59,-99.99,,,-99.99,,2013-03-22 03:02:00,
2013-03-21 23:12:00,29.0,16.0,30.01,West,276,0.0,-999.0,59,-99.99,,,-99.99,,2013-03-22 03:12:00,
2013-03-21 23:22:00,29.0,14.0,30.01,West,276,0.0,-999.0,52,-99.99,,,-99.99,,2013-03-22 03:22:00,
2013-03-21 23:33:00,30.0,14.0,30.02,West,276,0.0,-999.0,51,-99.99,,,-99.99,,2013-03-22 03:33:00,
2013-03-21 23:43:00,30.0,14.0,30.02,West,276,0.0,-999.0,51,-99.99,,,-99.99,,2013-03-22 03:43:00,
2013-03-21 23:53:00,30.0,17.0,30.02,West,276,0.0,-999.0,57,-99.99,,,-99.99,,2013-03-22 03:53:00,